{"data":{"norad_id":60246,"intl_designator":"2024-125J","name":"CATSAT","alt_names":[],"object_type":"PAYLOAD","status":"ACTIVE","operator":null,"country":"US","launch_date":"2024-07-04","launch_site_code":"AFWTR","launch_vehicle":null,"mission":null,"orbit_class":"UNKNOWN","rcs_meters":null,"size_class":null,"mass_kg":null,"dimensions":null,"purposes":[],"wikipedia_slug":null,"has_3d_model":false,"image_url":null,"decayed_at":null,"tle_current":{"epoch":"2026-05-25T03:14:54.683232Z","epoch_age_seconds":66874,"freshness":"FRESH","line1":"1 60246U 24125J   26145.13535513  .00054369  00000+0  77694-3 0  9998","line2":"2 60246  97.2117 357.3826 0021076 264.9784  94.9065 15.55814065103802","mean_motion":15.55814065,"eccentricity":0.0021076,"inclination_deg":97.2117,"raan_deg":357.3826,"arg_perigee_deg":264.9784,"mean_anomaly_deg":94.9065,"bstar":0.00077694,"rev_number":10380,"period_min":92.556047177784,"perigee_km":385.50212156765,"apogee_km":414.07242797066,"semimajor_km":6777.9242747692,"source":"CELESTRAK","updated_at":"2026-05-25T13:38:01.931743Z"}}}